Radiation Dose at Monitoring Post of Fukushima Daini Nuclear Power Station
Date,Time,MP-1(microSv/h),MP-2(microSv/h),MP-3(microSv/h),MP-4(microSv/h),MP-5(microSv/h),MP-6(microSv/h),MP-7(microSv/h),Wind Direction,Wind Velocity(m/s),Rain
2019/11/02,00:00,0.184,0.162,0.274,0.256,0.260,0.139,0.086,west-northwest,1.8,No
2019/11/02,00:10,0.183,0.162,0.274,0.259,0.261,0.141,0.085,west-northwest,2.7,No
2019/11/02,00:20,0.184,0.162,0.275,0.257,0.261,0.140,0.085,northwest,2.9,No
2019/11/02,00:30,0.184,0.162,0.274,0.258,0.261,0.139,0.086,west-northwest,3.0,No
2019/11/02,00:40,0.184,0.160,0.275,0.258,0.260,0.139,0.086,west-northwest,4.3,No
2019/11/02,00:50,0.184,0.163,0.274,0.257,0.260,0.140,0.086,west-northwest,3.8,No
2019/11/02,01:00,0.184,0.163,0.273,0.256,0.261,0.140,0.086,west-northwest,4.6,No
2019/11/02,01:10,0.183,0.162,0.272,0.258,0.261,0.140,0.085,west-northwest,4.0,No
2019/11/02,01:20,0.183,0.162,0.274,0.257,0.261,0.140,0.085,west-northwest,5.5,No
2019/11/02,01:30,0.184,0.162,0.273,0.256,0.260,0.139,0.086,west-northwest,5.4,No
2019/11/02,01:40,0.183,0.162,0.273,0.256,0.259,0.139,0.086,west-northwest,5.0,No
2019/11/02,01:50,0.183,0.162,0.273,0.258,0.259,0.140,0.086,west-northwest,4.6,No
2019/11/02,02:00,0.184,0.163,0.275,0.257,0.260,0.140,0.086,northwest,4.4,No
2019/11/02,02:10,0.184,0.161,0.274,0.256,0.261,0.141,0.086,west-northwest,4.4,No
2019/11/02,02:20,0.184,0.161,0.275,0.258,0.259,0.140,0.086,west-northwest,5.2,No
2019/11/02,02:30,0.184,0.162,0.274,0.258,0.260,0.140,0.086,west-northwest,4.6,No
2019/11/02,02:40,0.184,0.162,0.275,0.258,0.259,0.140,0.086,west,3.2,No
2019/11/02,02:50,0.183,0.162,0.272,0.257,0.260,0.140,0.086,west,4.9,No
2019/11/02,03:00,0.185,0.162,0.273,0.258,0.261,0.140,0.086,west,6.2,No
2019/11/02,03:10,0.185,0.162,0.274,0.257,0.260,0.140,0.086,west-northwest,7.3,No
2019/11/02,03:20,0.184,0.161,0.274,0.258,0.260,0.139,0.086,west-northwest,7.4,No
2019/11/02,03:30,0.183,0.162,0.274,0.257,0.260,0.140,0.087,west-northwest,8.7,No
2019/11/02,03:40,0.184,0.162,0.276,0.258,0.260,0.139,0.085,northwest,7.7,No
2019/11/02,03:50,0.184,0.162,0.275,0.257,0.259,0.140,0.085,northwest,6.7,No
2019/11/02,04:00,0.184,0.161,0.273,0.258,0.260,0.140,0.086,west-northwest,7.4,No
2019/11/02,04:10,0.184,0.162,0.275,0.258,0.259,0.139,0.085,west-northwest,7.4,No
2019/11/02,04:20,0.184,0.161,0.274,0.256,0.260,0.140,0.086,west-northwest,6.7,No
2019/11/02,04:30,0.183,0.162,0.274,0.256,0.262,0.140,0.086,west-northwest,6.8,No
2019/11/02,04:40,0.185,0.163,0.274,0.257,0.259,0.139,0.086,west-northwest,6.4,No
2019/11/02,04:50,0.184,0.162,0.275,0.257,0.260,0.140,0.086,west-northwest,6.4,No
2019/11/02,05:00,0.183,0.162,0.274,0.257,0.261,0.140,0.086,west-northwest,6.3,No
2019/11/02,05:10,0.184,0.162,0.274,0.257,0.260,0.140,0.087,west-northwest,5.8,No
2019/11/02,05:20,0.184,0.162,0.275,0.257,0.261,0.140,0.086,west-northwest,5.6,No
2019/11/02,05:30,0.183,0.163,0.274,0.256,0.259,0.140,0.086,west-northwest,5.8,No
2019/11/02,05:40,0.183,0.161,0.273,0.256,0.262,0.140,0.085,west-northwest,5.9,No
2019/11/02,05:50,0.184,0.161,0.274,0.257,0.259,0.140,0.086,west-northwest,4.6,No
2019/11/02,06:00,0.184,0.161,0.275,0.258,0.260,0.139,0.086,west-northwest,4.1,No
2019/11/02,06:10,0.184,0.163,0.274,0.257,0.261,0.139,0.086,west-northwest,3.4,No
2019/11/02,06:20,0.185,0.162,0.273,0.257,0.260,0.139,0.086,west-northwest,2.8,No
2019/11/02,06:30,0.185,0.162,0.274,0.257,0.259,0.139,0.086,west-northwest,2.6,No
2019/11/02,06:40,0.184,0.162,0.273,0.256,0.260,0.139,0.086,west-northwest,2.4,No
2019/11/02,06:50,0.183,0.163,0.273,0.256,0.260,0.139,0.086,west-northwest,1.8,No
2019/11/02,07:00,0.185,0.161,0.275,0.257,0.259,0.139,0.086,west-northwest,1.7,No
2019/11/02,07:10,0.184,0.160,0.273,0.257,0.261,0.139,0.085,northwest,1.0,No
2019/11/02,07:20,0.183,0.162,0.273,0.256,0.259,0.139,0.086,west,2.4,No
2019/11/02,07:30,0.184,0.161,0.273,0.257,0.259,0.139,0.086,west-northwest,2.1,No
2019/11/02,07:40,0.184,0.161,0.275,0.255,0.259,0.139,0.086,west-northwest,2.3,No
2019/11/02,07:50,0.183,0.161,0.273,0.255,0.259,0.140,0.084,west-northwest,2.8,No
2019/11/02,08:00,0.183,0.162,0.274,0.255,0.261,0.139,0.085,northwest,2.0,No
2019/11/02,08:10,0.184,0.161,0.274,0.256,0.262,0.139,0.085,north-northwest,2.0,No
2019/11/02,08:20,0.183,0.161,0.273,0.256,0.259,0.139,0.085,northwest,3.5,No
2019/11/02,08:30,0.183,0.161,0.274,0.255,0.262,0.139,0.085,west-northwest,4.6,No
2019/11/02,08:40,0.184,0.161,0.274,0.256,0.261,0.139,0.085,west-northwest,4.2,No
2019/11/02,08:50,0.184,0.162,0.274,0.257,0.260,0.138,0.087,west-northwest,4.9,No
2019/11/02,09:00,0.184,0.161,0.273,0.255,0.260,0.138,0.085,northwest,3.9,No
2019/11/02,09:10,0.183,0.161,0.273,0.255,0.261,0.139,0.085,northwest,3.9,No
2019/11/02,09:20,0.184,0.160,0.272,0.254,0.260,0.139,0.086,northwest,2.3,No
2019/11/02,09:30,0.182,0.161,0.275,0.255,0.260,0.139,0.085,northwest,2.1,No
2019/11/02,09:40,0.184,0.161,0.273,0.257,0.258,0.139,0.085,northeast,0.7,No
2019/11/02,09:50,0.183,0.161,0.274,0.255,0.261,0.139,0.085,north-northwest,1.2,No
2019/11/02,10:00,0.181,0.162,0.273,0.257,0.258,0.139,0.085,north-northwest,1.5,No
2019/11/02,10:10,0.184,0.161,0.274,0.257,0.257,0.139,0.086,west-northwest,1.7,No
2019/11/02,10:20,0.183,0.160,0.274,0.254,0.261,0.138,0.085,northwest,1.7,No
2019/11/02,10:30,0.181,0.162,0.274,0.254,0.260,0.139,0.085,northwest,1.5,No
2019/11/02,10:40,0.180,0.162,0.274,0.256,0.257,0.139,0.086,northeast,1.3,No
2019/11/02,10:50,0.185,0.160,0.272,0.257,0.261,0.139,0.086,east,2.7,No
2019/11/02,11:00,0.183,0.162,0.275,0.255,0.261,0.140,0.085,east,2.0,No
2019/11/02,11:10,0.181,0.161,0.273,0.254,0.259,0.139,0.086,east,3.5,No
2019/11/02,11:20,0.185,0.161,0.275,0.258,0.261,0.140,0.086,east-southeast,3.5,No
2019/11/02,11:30,0.184,0.162,0.273,0.259,0.261,0.139,0.085,east-southeast,3.5,No
2019/11/02,11:40,0.182,0.160,0.274,0.255,0.259,0.140,0.087,southeast,3.4,No
2019/11/02,11:50,0.182,0.162,0.274,0.258,0.261,0.140,0.085,east-southeast,3.5,No
2019/11/02,12:00,0.181,0.161,0.274,0.259,0.263,0.140,0.085,east-southeast,2.6,No
2019/11/02,12:10,0.184,0.161,0.274,0.256,0.259,0.140,0.086,east-southeast,3.0,No
2019/11/02,12:20,0.185,0.162,0.274,0.256,0.259,0.139,0.086,east-southeast,2.9,No
2019/11/02,12:30,0.183,0.162,0.274,0.260,0.262,0.140,0.085,southeast,3.4,No
2019/11/02,12:40,0.181,0.160,0.274,0.257,0.260,0.139,0.086,east-southeast,3.0,No
2019/11/02,12:50,0.181,0.162,0.273,0.255,0.258,0.141,0.086,southeast,3.8,No
2019/11/02,13:00,0.185,0.161,0.274,0.259,0.261,0.140,0.085,south-southeast,3.3,No
2019/11/02,13:10,0.184,0.161,0.274,0.257,0.261,0.141,0.086,south-southeast,3.9,No
2019/11/02,13:20,0.184,0.163,0.275,0.254,0.258,0.142,0.087,southeast,4.1,No
2019/11/02,13:30,0.183,0.161,0.271,0.258,0.259,0.140,0.085,south-southeast,3.8,No
2019/11/02,13:40,0.182,0.162,0.273,0.258,0.262,0.141,0.086,south-southeast,4.7,No
2019/11/02,13:50,0.185,0.162,0.272,0.256,0.260,0.140,0.086,south-southeast,4.3,No
2019/11/02,14:00,0.184,0.160,0.275,0.259,0.260,0.140,0.086,south-southeast,4.9,No
2019/11/02,14:10,0.184,0.162,0.274,0.257,0.263,0.141,0.087,south-southeast,3.8,No
2019/11/02,14:20,0.184,0.162,0.275,0.260,0.262,0.139,0.086,south-southeast,4.1,No
2019/11/02,14:30,0.183,0.162,0.274,0.258,0.263,0.139,0.086,south-southeast,5.4,No
2019/11/02,14:40,0.185,0.162,0.275,0.259,0.261,0.140,0.087,south-southeast,4.7,No
2019/11/02,14:50,0.183,0.162,0.274,0.259,0.263,0.139,0.086,south-southeast,4.9,No
2019/11/02,15:00,0.185,0.162,0.274,0.259,0.260,0.140,0.086,south-southeast,4.8,No
2019/11/02,15:10,0.184,0.161,0.274,0.258,0.263,0.140,0.086,south-southeast,5.1,No
2019/11/02,15:20,0.185,0.163,0.275,0.259,0.261,0.140,0.087,south-southeast,4.5,No
2019/11/02,15:30,0.184,0.163,0.273,0.258,0.261,0.141,0.085,south-southeast,4.3,No
2019/11/02,15:40,0.185,0.162,0.275,0.260,0.262,0.139,0.086,south-southeast,3.4,No
2019/11/02,15:50,0.184,0.163,0.274,0.257,0.261,0.140,0.086,south-southeast,3.9,No
2019/11/02,16:00,0.184,0.162,0.275,0.258,0.262,0.140,0.086,south-southeast,3.2,No
2019/11/02,16:10,0.184,0.162,0.274,0.259,0.262,0.140,0.086,south-southeast,4.4,No
2019/11/02,16:20,0.184,0.163,0.273,0.258,0.262,0.140,0.085,south-southeast,4.2,No
2019/11/02,16:30,0.186,0.163,0.276,0.258,0.261,0.141,0.086,south,3.9,No
2019/11/02,16:40,0.184,0.162,0.275,0.258,0.263,0.140,0.086,south,4.8,No
2019/11/02,16:50,0.184,0.162,0.275,0.259,0.262,0.140,0.086,south,4.9,No
2019/11/02,17:00,0.184,0.163,0.274,0.258,0.263,0.140,0.086,south,5.0,No
2019/11/02,17:10,0.184,0.163,0.274,0.258,0.262,0.140,0.086,south,5.1,No
2019/11/02,17:20,0.184,0.162,0.276,0.260,0.261,0.141,0.086,south,5.3,No
2019/11/02,17:30,0.185,0.162,0.275,0.258,0.263,0.140,0.087,south,5.5,No
2019/11/02,17:40,0.184,0.162,0.274,0.259,0.261,0.141,0.086,south,5.4,No
2019/11/02,17:50,0.183,0.162,0.276,0.259,0.262,0.140,0.086,south-southwest,5.7,No
2019/11/02,18:00,0.185,0.163,0.275,0.257,0.262,0.141,0.086,south-southwest,6.0,No
2019/11/02,18:10,0.184,0.162,0.274,0.258,0.260,0.141,0.086,south-southwest,5.7,No
2019/11/02,18:20,0.184,0.162,0.275,0.259,0.262,0.139,0.086,south-southwest,6.3,No
2019/11/02,18:30,0.184,0.164,0.274,0.258,0.261,0.142,0.087,south-southwest,6.5,No
2019/11/02,18:40,0.184,0.162,0.276,0.258,0.262,0.141,0.086,south-southwest,5.9,No
2019/11/02,18:50,0.184,0.162,0.275,0.258,0.263,0.141,0.086,south-southwest,6.4,No
2019/11/02,19:00,0.184,0.162,0.275,0.259,0.262,0.141,0.086,south-southwest,5.4,No
2019/11/02,19:10,0.185,0.162,0.275,0.260,0.261,0.140,0.086,south-southwest,5.5,No
2019/11/02,19:20,0.184,0.162,0.275,0.258,0.263,0.141,0.086,south-southwest,5.6,No
2019/11/02,19:30,0.185,0.163,0.274,0.259,0.261,0.140,0.087,south-southwest,5.9,No
2019/11/02,19:40,0.184,0.163,0.276,0.259,0.263,0.140,0.086,south-southwest,5.9,No
2019/11/02,19:50,0.184,0.161,0.274,0.258,0.261,0.140,0.086,south-southwest,5.4,No
2019/11/02,20:00,0.185,0.163,0.274,0.259,0.262,0.141,0.086,south-southwest,5.8,No
2019/11/02,20:10,0.184,0.163,0.276,0.259,0.261,0.140,0.087,south-southwest,5.5,No
2019/11/02,20:20,0.184,0.163,0.274,0.259,0.262,0.140,0.087,south-southwest,5.2,No
2019/11/02,20:30,0.184,0.163,0.275,0.259,0.261,0.140,0.087,south-southwest,4.8,No
2019/11/02,20:40,0.185,0.163,0.275,0.259,0.260,0.141,0.087,south-southwest,4.8,No
2019/11/02,20:50,0.184,0.162,0.274,0.258,0.261,0.140,0.086,south-southwest,5.5,No
2019/11/02,21:00,0.184,0.162,0.276,0.259,0.263,0.140,0.086,south-southwest,5.1,No
2019/11/02,21:10,0.185,0.162,0.277,0.259,0.261,0.141,0.087,south-southwest,4.8,No
2019/11/02,21:20,0.185,0.163,0.275,0.259,0.261,0.140,0.086,south-southwest,4.7,No
2019/11/02,21:30,0.184,0.162,0.275,0.259,0.264,0.140,0.087,south-southwest,4.7,No
2019/11/02,21:40,0.184,0.163,0.276,0.259,0.262,0.140,0.087,south-southwest,4.5,No
2019/11/02,21:50,0.185,0.163,0.275,0.258,0.260,0.140,0.086,south-southwest,5.2,No
2019/11/02,22:00,0.185,0.162,0.276,0.259,0.262,0.140,0.086,south-southwest,4.7,No
2019/11/02,22:10,0.185,0.163,0.276,0.259,0.261,0.140,0.087,south-southwest,4.2,No
2019/11/02,22:20,0.186,0.163,0.275,0.259,0.263,0.140,0.086,southwest,3.6,No
2019/11/02,22:30,0.184,0.163,0.275,0.259,0.262,0.142,0.088,southwest,2.6,No
2019/11/02,22:40,0.185,0.163,0.277,0.258,0.261,0.140,0.087,southwest,2.0,No
2019/11/02,22:50,0.185,0.162,0.275,0.258,0.263,0.141,0.086,west-southwest,2.8,No
2019/11/02,23:00,0.184,0.163,0.275,0.259,0.261,0.140,0.087,southwest,2.3,No
2019/11/02,23:10,0.185,0.164,0.276,0.259,0.262,0.141,0.087,south-southwest,2.1,No
2019/11/02,23:20,0.186,0.162,0.274,0.258,0.262,0.140,0.087,southwest,3.2,No
2019/11/02,23:30,0.185,0.164,0.276,0.260,0.262,0.141,0.087,southwest,3.5,No
2019/11/02,23:40,0.185,0.163,0.277,0.259,0.261,0.141,0.088,southwest,3.0,No
2019/11/02,23:50,0.186,0.163,0.275,0.260,0.262,0.141,0.087,southwest,4.7,No
